Juneau, AK

11:29 PM AKDT on September 30, 2016 (GMT -0800)
Juneau International

Weather History for PAJN - February, 2014

Change the Weather History Date:

Sunday, February 2, 2014

  Actual Average Record
Temperature  
Mean Temperature 29 °F 29 °F  
Max Temperature 37 °F 34 °F 46 °F (1954)
Min Temperature 21 °F 24 °F -22 °F (1968)
Degree Days  
Heating Degree Days 36 36  
Month to date heating degree days 73 72  
Since 1 July heating degree days 4572 4932  
Moisture  
Dew Point 22 °F    
Average Humidity 75    
Maximum Humidity 100    
Minimum Humidity 49    
Precipitation  
Precipitation 0.00 in 0.15 in 1.00 in (2011)
Month to date precipitation T 0.31  
Year to date precipitation 10.15 5.66  
Snow  
Snow 0.00 in 0.70 in 8.00 in (2002)
Month to date snowfall T 1.5  
Since 1 July snowfall 64.0 58.7  
Snow Depth 0.00 in    
Sea Level Pressure  
Sea Level Pressure 30.40 in    
Wind  
Wind Speed 3 mph (East)    
Max Wind Speed 20 mph    
Max Gust Speed 24 mph    
Visibility 10 miles    
Events      
T = Trace of Precipitation, MM = Missing Value Source: NWS Daily Summary

Daily Weather History Graph

Daily Weather History Graph

Search for Another Location

Airport or City:

Trip Planner

Search our weather history database for the weather conditions in past years. The results will help you decide how hot, cold, wet, or windy it might be!

Date:

Astronomy

Feb. 02, 2014 Rise Set
Actual Time 8:00 AM AKST 4:23 PM AKST
Civil Twilight 7:16 AM AKST 5:08 PM AKST
Nautical Twilight 6:28 AM AKST 5:56 PM AKST
Astronomical Twilight 5:42 AM AKST 6:42 PM AKST
Moon 8:36 AM AKST (2/2) 9:19 PM AKST (2/2)
Length of Visible Light 9h 51m
Length of Day
8h 23m
Waxing Crescent, 12% of the Moon is Illuminated
Feb 2
Waxing Crescent
Feb 6
First Quarter
Feb 14
Full
Feb 22
Last Quarter
Feb 28
New

Hourly Weather History & Observations

Time (AKST) Temp. Windchill Dew Point Humidity Pressure Visibility Wind Dir Wind Speed Gust Speed Precip Events Conditions
12:53 AM 21.9 °F - 19.9 °F 92% 30.35 in 10.0 mi Calm Calm - N/A   Clear
1:53 AM 21.0 °F 16.2 °F 18.0 °F 88% 30.35 in 10.0 mi West 3.5 mph - N/A   Partly Cloudy
2:53 AM 24.1 °F - 23.0 °F 96% 30.37 in 10.0 mi Calm Calm - N/A   Partly Cloudy
3:53 AM 21.9 °F - 21.0 °F 96% 30.36 in 10.0 mi Calm Calm - N/A   Clear
4:53 AM 23.0 °F - 19.9 °F 88% 30.36 in 10.0 mi Calm Calm - N/A   Clear
5:53 AM 21.0 °F - 19.0 °F 92% 30.37 in 10.0 mi Calm Calm - N/A   Clear
6:53 AM 21.9 °F - 19.0 °F 89% 30.37 in 10.0 mi Calm Calm - N/A   Partly Cloudy
7:53 AM 23.0 °F - 21.0 °F 92% 30.37 in 10.0 mi North - - N/A   Mostly Cloudy
8:53 AM 24.1 °F 18.2 °F 21.9 °F 91% 30.38 in 10.0 mi ENE 4.6 mph - N/A   Mostly Cloudy
9:53 AM 26.1 °F 21.9 °F 24.1 °F 92% 30.38 in 10.0 mi Variable 3.5 mph - N/A   Scattered Clouds
10:53 AM 30.0 °F - 26.1 °F 85% 30.39 in 10.0 mi Calm Calm - N/A   Clear
11:53 AM 30.9 °F 27.5 °F 27.0 °F 85% 30.40 in 10.0 mi WSW 3.5 mph - N/A   Clear
12:53 PM 34.0 °F - 28.9 °F 82% 30.40 in 10.0 mi Calm Calm - N/A   Clear
1:53 PM 35.1 °F 32.2 °F 28.9 °F 78% 30.40 in 10.0 mi West 3.5 mph - N/A   Clear
2:53 PM 37.0 °F 31.6 °F 23.0 °F 57% 30.41 in 10.0 mi ESE 6.9 mph - N/A   Clear
3:53 PM 34.0 °F 29.8 °F 23.0 °F 64% 30.41 in 10.0 mi ENE 4.6 mph - N/A   Clear
4:53 PM 30.9 °F 26.2 °F 24.1 °F 76% 30.41 in 10.0 mi ENE 4.6 mph - N/A   Clear
5:53 PM 28.0 °F 21.7 °F 23.0 °F 81% 30.41 in 10.0 mi ENE 5.8 mph - N/A   Clear
6:53 PM 27.0 °F - 23.0 °F 85% 30.42 in 10.0 mi Calm Calm - N/A   Clear
7:53 PM 25.0 °F 20.7 °F 21.0 °F 85% 30.43 in 10.0 mi ESE 3.5 mph - N/A   Clear
8:53 PM 24.1 °F - 19.9 °F 84% 30.45 in 10.0 mi Calm Calm - N/A   Clear
9:53 PM 26.1 °F 19.4 °F 21.0 °F 81% 30.46 in 10.0 mi East 5.8 mph - N/A   Clear
10:53 PM 32.0 °F 21.2 °F 15.1 °F 50% 30.48 in 10.0 mi ENE 16.1 mph 21.9 mph N/A   Clear
11:53 PM 34.0 °F 26.0 °F 12.9 °F 42% 30.49 in 10.0 mi East 10.4 mph - N/A   Clear